Regional Weather Roundup
Issued by NWS

Home | Current Version | Previous Version | Graphics & Text | Print | Product List | Glossary On
Versions: 1 2 3 4 5 6 7 8 9 10 11 12 13 14 15 16 17 18 19 20 21 22 23 24 25 26 27 28 29 30 31 32 33 34 35 36 37 38 39 40 41 42 43 44 45 46 47 48 49 50
000
ASUS43 KDTX 280801
RWRMI
MICHIGAN HOURLY REGIONAL WEATHER ROUNDUP
NATIONAL WEATHER SERVICE DETROIT/PONTIAC MI
300 AM EST FRI NOV 28 2014

NOTE: "FAIR" INDICATES FEW OR NO CLOUDS BELOW 12,000 FEET WITH NO
SIGNIFICANT WEATHER AND/OR OBSTRUCTION TO VISIBILITY.

MIZ047>049-052>055-059>063-066>070-074>076-081>083-280900-
SOUTHEAST LOWER MICHIGAN

CITY           SKY/WX    TMP DP  RH WIND       PRES   REMARKS
ADRIAN         CLEAR     17   9  70 NW5       30.35R WCI  10
ALMA           CLOUDY    18  13  80 W3        30.34R
ANN ARBOR      MOCLDY    19   8  62 NW6       30.32R WCI  11
BAD AXE        CLOUDY    19  12  74 W9        30.29S WCI   8
CARO           CLOUDY    21  10  63 W10       30.30R WCI  10
DETROIT CITY   PTCLDY    23   4  44 NW7       30.33R WCI  15
DETROIT        CLOUDY    22   8  55 NW7       30.33R WCI  13
FLINT          CLEAR     16   9  74 W6        30.32R WCI   7
GROSSE ILE     CLOUDY    23  10  58 NW12      30.32R WCI  12
HILLSDALE      CLOUDY    17  13  86 CALM      30.31R
HOWELL         CLEAR     15   7  69 W5        30.31R WCI   8

CITY           SKY/WX    TMP DP  RH WIND       PRES   REMARKS
JACKSON        CLEAR     14   7  73 W5        30.33R WCI   6
LAMBERTVILLE   CLEAR     19  12  73 NW3       30.35S
LANSING        FLURRIES  20   9  62 W7        30.34R WCI  11
LAPEER         CLOUDY    20   8  58 W7        30.31R WCI  11
MASON          CLOUDY    20  10  65 NW9       30.33R WCI   9
MONROE         CLEAR     18  10  73 W7        30.33R WCI   8
MT. CLEMENS    PTCLDY    20   7  57 NW7       30.30R WCI  11
PONTIAC        PTCLDY    17   7  64 W9        30.29R WCI   6
PORT HOPE        N/A     19   7  59 W9        30.27R WCI   8
PORT HURON     CLOUDY    21  12  68 W9        30.31R WCI  11
TRI CITIES     CLEAR     16   8  71 W5        30.34R WCI   9
TROY           FAIR      22   7  52 NW6       30.34R WCI  14
SAGINAW HB     CLOUDY    19  10  68 W8        30.33R WCI   9
$$
MIZ043>046-050>051-056>058-064>065-071>073-077>080-280900-
SOUTHWEST LOWER MICHIGAN

CITY           SKY/WX    TMP DP  RH WIND       PRES   REMARKS
BATTLE CREEK   CLOUDY    22   8  55 N3        30.34R
BENTON HARBOR  CLOUDY    24  14  65 NW3       30.35R
BIG RAPIDS     CLOUDY    18  14  86 SW3       30.30S
COLDWATER      CLOUDY    23  17  76 W5        30.33R WCI  17
FREMONT        FLURRIES  19  15  83 CALM      30.33S
HOLLAND        CLOUDY    21  14  74 SE3       30.35S
GRAND RAPIDS   CLOUDY    18  12  77 S5        30.34R WCI  11
IONIA          PTSUNNY   17  11  76 CALM      30.34R
KALAMAZOO      CLOUDY    21  15  78 CALM      30.34R
LUDINGTON      CLOUDY    19  15  84 CALM      30.33S
MARSHALL       CLOUDY    15  10  83 CALM      30.33R
MOUNT PLEASANT CLOUDY    17  13  84 CALM      30.32R
MUSKEGON       LGT SNOW  20  14  77 S3        30.35R
SOUTH HAVEN    FLURRIES  22  19  87 E5        30.35S WCI  16
$$
MIZ016>042-280900-
NORTHERN LOWER MICHIGAN

CITY           SKY/WX    TMP DP  RH WIND       PRES   REMARKS
ALPENA         CLOUDY    16   8  71 W8        30.27R WCI   5
BEAVER ISLAND  MOCLDY    19  11  69 W6        30.28S WCI  11
BELLAIRE       CLOUDY    18  16  91 CALM      30.30S
CADILLAC       FLURRIES  12  10  90 SW5       30.26R WCI   5
CHARLEVOIX     FLURRIES  20  11  70 NW7       30.32R WCI  11
FRANKFORT      CLOUDY    19  14  81 SE3       30.31F
GAYLORD        CLOUDY    12   8  84 W5        30.22S WCI   4
GRAYLING       LGT SNOW  16  13  90 CALM      30.26R
HARBOR SPRINGS LGT SNOW  18  10  71 NW5       30.27R WCI  11
HOUGHTON LAKE  CLOUDY    11   7  84 W6        30.27R WCI   1
MANISTEE       CLOUDY    18  12  79 CALM      30.32S
OSCODA         PTCLDY    12   7  78 W7        30.29R WCI   2
PELLSTON       FLURRIES  17  12  80 W3        30.28R
ROGERS CITY    CLOUDY    17  12  80 W5        30.27S WCI  10
TRAVERSE CITY  CLOUDY    18  11  74 SW5       30.31R WCI  11
$$
MIZ007>008-015-280900-
EASTERN UPPER MICHIGAN

CITY           SKY/WX    TMP DP  RH WIND       PRES   REMARKS
KINROSS        PTCLDY    -2  -2 100 E3        30.27R
MACKINAC ISLAN CLOUDY    16  12  85 NW7       30.26S WCI   6
NEWBERRY       CLOUDY     8   6  92 SW9       30.25S WCI  -5
S. S. MARIE    PTCLDY    -1  -6  79 E3        30.28F
MUNISING         N/A     12   3  67 S6        30.29R WCI   3
$$
MIZ004>006-011>014-085-280900-
CENTRAL UPPER MICHIGAN

CITY           SKY/WX    TMP DP  RH WIND       PRES   REMARKS
MANISTIQUE     MOCLDY     7   2  81 W7        30.29S WCI  -5
ESCANABA       PTCLDY     3   0  85 W5        30.30R WCI  -6
MENOMINEE      PTCLDY     3   0  85 CALM      30.32S
SAWYER-GWINN   MOCLDY    -1  -5  84 CALM      30.24S
$$
MIZ001>003-009>011-084-280900-
WESTERN UPPER MICHIGAN

CITY           SKY/WX    TMP DP  RH WIND       PRES   REMARKS
IRON MOUNTAIN  CLEAR     -4  -9  79 CALM      30.26R
HOUGHTON       MOCLDY     5   0  79 SW5       30.21S WCI  -4
COPPER HARBOR    N/A     13   7  77 SW7       30.25S WCI   3
IRONWOOD       CLOUDY     1   1 100 S3        30.20F
$$

ABBREVIATIONS USED IN REMARKS
   TC - TEMPERATURE IN CELSIUS
  WCI - WIND CHILL INDEX
   HX - HEAT INDEX
  VSB - VISIBILITY



USA.gov is the U.S. government's official web portal to all federal, state and local government web resources and services.